Wind_Speed
28 26 26 22 20 15 14 16 20 16 9 16 18 21 29 23 16 25 13 11 22 34 34 39 29 34 23 24 19 17 20 22 22 21 18 17 12 15 16 13 13 11 10 6
20 22 21 16 17 16 14 15 18 20 10 13 21 18 31 30 22 20 9 16 16 25 41 39 33 31 28 23 20 17 18 22 23 21 18 16 13 17 15 14 14 12 10 8
15 6 10 15 12 13 14 16 13 19 17 16 9 10 31 26 29 22 22 17 18 20 30 39 36 35 34 30 26 20 19 22 23 23 21 19 19 18 16 17 14 13 11 9
12 11 11 11 20 18 19 14 17 19 18 15 16 6 25 34 33 31 22 20 18 23 19 21 26 36 33 29 24 22 21 20 24 25 23 20 16 14 13 12 14 12 10 10
11 11 7 14 16 14 20 9 16 17 18 21 13 4 5 29 37 32 25 22 20 26 27 24 29 25 27 30 24 24 23 22 23 26 23 21 19 16 17 16 16 14 12 10
12 13 7 7 13 15 20 16 17 18 16 7 10 4 8 21 21 33 30 23 20 20 25 29 29 30 29 27 26 25 26 25 24 25 26 23 20 18 20 19 17 16 14 11
8 9 11 12 14 10 14 15 1 5 3 6 11 9 7 10 10 18 29 26 28 20 27 31 30 33 36 29 26 26 27 28 26 25 25 25 22 21 18 17 19 18 15 15
3 3 3 3 2 6 11 6 10 6 3 2 7 5 11 9 15 18 17 26 28 28 18 23 30 29 26 28 27 26 26 29 29 28 25 24 25 23 21 18 19 19 17 16
2 7 10 11 5 7 12 14 10 7 16 3 7 11 16 13 12 18 19 27 33 32 35 29 33 30 19 19 22 24 26 28 29 30 27 26 26 26 23 20 18 19 19 17
3 9 16 15 8 3 4 11 9 7 2 2 4 9 13 15 10 14 15 28 32 28 33 32 36 29 19 16 20 20 24 29 28 29 31 28 28 28 25 23 20 19 19 19
2 6 16 15 5 8 9 12 11 10 6 6 3 8 23 16 17 18 19 30 27 39 34 31 30 31 23 22 23 24 25 28 32 32 32 31 31 31 28 26 24 21 20 20
8 5 13 22 19 18 13 5 13 8 8 3 3 6 18 12 15 13 20 32 24 32 41 37 33 27 13 20 30 31 30 27 30 32 34 33 31 33 32 29 26 24 22 21
8 3 7 14 8 6 2 6 15 15 6 5 2 2 12 19 20 17 14 25 19 29 39 44 39 36 34 27 23 30 34 32 28 30 34 35 34 33 34 32 30 27 26 24
9 5 4 5 10 18 24 21 17 18 11 25 10 12 14 12 13 15 11 9 11 29 32 48 43 40 34 26 25 32 37 33 30 31 34 35 34 34 35 34 33 31 29 28
10 5 10 16 19 23 28 31 27 22 20 12 17 20 11 8 11 14 8 12 19 16 35 42 39 38 30 32 43 37 41 36 32 31 32 34 34 33 34 37 36 33 32 32
6 7 12 15 10 15 28 36 37 36 28 23 20 20 17 11 8 7 3 4 17 17 17 34 41 43 45 41 46 46 44 32 28 28 27 29 33 34 33 34 37 38 36 33
7 6 12 4 14 17 18 26 26 31 25 22 22 20 14 15 14 14 5 8 3 13 10 13 24 24 41 26 30 42 45 42 35 28 25 28 29 32 33 33 34 36 40 37
10 9 12 13 13 1 13 13 15 19 8 11 10 13 16 12 4 9 8 11 19 13 5 9 11 4 22 35 37 30 35 40 32 30 26 22 23 23 29 34 33 32 34 39
11 13 14 6 8 20 29 12 12 9 5 3 13 18 20 15 12 10 11 11 14 26 18 13 13 9 7 15 30 24 31 34 34 36 35 23 20 18 21 32 33 30 33 34
8 12 10 10 5 6 11 6 8 19 16 15 10 15 13 11 17 16 13 10 11 24 29 18 13 7 5 4 9 21 28 37 35 38 44 37 27 26 22 19 31 31 30 31
2 3 5 12 16 12 24 24 18 15 17 19 18 19 16 8 10 16 17 10 8 15 29 26 14 10 6 3 5 10 21 31 36 43 48 36 32 25 18 14 19 29 30 29
4 5 3 5 8 9 15 17 13 20 23 25 27 29 24 22 13 15 18 20 20 10 16 44 25 27 14 12 9 8 13 14 24 30 48 37 30 24 21 21 17 25 32 33
2 6 7 6 12 20 26 28 26 27 32 28 30 33 35 29 28 21 21 24 25 26 21 20 46 54 31 22 16 14 17 13 22 33 34 30 32 34 29 26 23 25 30 35
5 6 8 15 16 19 15 20 24 28 35 37 37 40 42 38 38 33 30 28 28 33 35 28 30 43 35 38 31 24 20 22 18 33 41 39 35 32 30 30 28 28 30 31
8 10 14 18 21 19 21 18 16 20 27 32 35 41 46 47 44 47 41 36 36 34 38 40 33 31 43 43 37 36 30 27 21 25 29 35 35 33 32 35 33 31 31 30
9 9 10 15 20 24 22 23 22 20 20 22 27 30 33 39 39 44 47 48 49 42 37 41 40 36 33 47 51 38 40 34 28 25 29 29 32 36 37 37 33 31 32 30
Wind_Direction
178 198 203 203 204 226 235 251 267 256 258 305 312 235 209 213 228 209 214 233 216 203 197 206 213 224 230 246 244 227 213 204 200 200 193 189 190 182 177 164 152 146 133 113
190 218 210 217 222 229 237 265 263 280 288 313 318 249 225 232 241 236 188 268 240 200 193 208 209 216 231 234 236 232 218 215 204 204 202 189 183 193 177 174 165 160 150 149
222 194 203 213 210 237 245 254 264 283 314 318 318 205 207 213 217 202 212 221 209 217 194 209 211 214 225 235 233 235 219 216 209 206 205 195 188 195 188 176 171 159 159 152
245 211 240 239 229 227 256 241 262 283 296 303 307 182 213 214 212 210 207 217 209 208 202 207 232 223 222 232 236 235 225 211 210 212 207 208 204 205 179 176 177 163 166 152
219 234 234 244 247 247 253 285 257 272 288 307 312 258 207 222 217 218 215 226 224 211 220 205 226 237 235 235 238 234 226 218 210 213 210 210 208 202 195 191 183 173 173 160
231 230 265 262 246 255 258 263 265 268 281 288 289 338 193 208 237 225 221 230 225 225 239 222 225 231 237 242 246 237 225 221 212 213 212 210 210 207 202 201 190 187 170 172
239 238 237 253 253 243 243 244 289 311 265 219 287 323 266 268 237 244 245 241 226 228 238 240 239 232 228 240 243 241 228 223 217 215 215 211 210 212 215 208 199 194 181 176
315 261 266 202 198 310 220 247 203 192 203 272 281 237 250 295 281 292 275 238 231 234 252 256 238 237 226 231 242 233 227 224 221 218 217 215 212 213 215 210 202 196 190 185
310 240 236 269 295 317 242 249 259 289 272 272 265 263 271 282 314 256 263 238 234 248 241 253 235 226 215 223 234 230 219 220 223 222 220 217 214 217 217 213 203 197 196 198
355 290 272 249 253 93 152 249 268 238 180 191 215 217 247 311 339 9 270 266 252 237 235 238 220 209 216 221 235 240 224 219 221 223 223 219 219 219 218 216 212 205 199 206
321 282 269 270 285 319 333 0 351 314 235 151 168 240 261 293 321 321 299 293 259 235 230 227 214 212 222 225 232 232 233 221 216 220 224 222 218 221 220 220 216 212 212 208
290 315 289 276 285 293 317 33 6 22 314 260 183 284 281 324 308 318 288 285 267 222 226 224 214 203 212 221 257 231 225 224 220 221 223 224 221 221 222 221 221 219 217 219
286 329 319 296 285 245 214 302 331 327 344 305 183 218 290 295 307 346 300 292 264 218 220 218 212 216 221 230 250 230 228 221 222 225 227 225 223 222 224 223 221 220 223 222
290 256 249 278 302 300 300 296 311 326 335 330 337 324 307 329 347 297 324 284 187 211 217 209 214 215 218 237 255 232 229 228 222 225 228 230 227 224 224 226 224 223 221 227
327 309 266 253 270 276 274 283 289 296 299 309 309 337 329 322 336 2 343 91 75 184 203 205 210 206 213 226 238 235 229 233 228 227 227 231 231 230 229 227 229 227 223 222
342 336 316 324 317 289 276 264 274 276 287 288 304 326 296 303 306 300 290 245 68 71 174 199 206 217 230 230 241 225 225 224 222 221 231 231 232 230 232 234 231 231 229 226
267 300 326 319 337 329 285 271 280 282 280 283 298 304 296 292 280 273 269 206 228 78 98 153 191 247 239 221 195 201 217 229 240 231 227 231 232 230 234 236 238 236 234 231
256 276 283 292 313 268 280 300 285 284 279 260 253 256 259 261 255 263 259 240 225 236 121 165 188 42 183 185 191 214 228 228 232 236 236 214 220 230 233 237 238 239 238 238
253 260 257 246 258 279 290 321 267 266 316 251 232 243 248 238 224 234 244 229 223 223 238 181 168 176 127 171 207 227 230 224 221 237 229 212 214 221 234 232 237 237 237 238
251 255 258 237 230 235 222 262 253 250 279 246 263 241 255 243 229 226 228 212 209 225 234 234 197 186 181 143 208 212 220 220 221 221 228 231 233 231 240 242 235 237 239 237
260 292 286 274 244 252 247 259 263 236 254 255 258 270 267 265 232 219 219 229 227 228 225 234 235 257 274 198 195 228 210 210 207 223 228 225 228 227 229 246 243 236 235 239
19 352 342 289 262 246 250 254 250 248 248 251 255 264 266 264 244 225 239 237 236 223 255 235 229 258 270 270 249 224 241 222 203 204 204 219 225 232 229 238 247 237 234 234
319 287 297 285 291 302 299 283 269 271 262 251 259 262 266 262 261 243 234 247 250 245 236 250 239 249 260 269 264 253 216 230 228 203 218 231 240 237 241 241 240 244 234 232
314 337 329 329 327 331 323 281 273 276 275 269 263 263 264 262 261 259 249 246 248 252 253 247 239 246 251 258 265 262 233 219 228 221 226 234 240 244 250 252 244 244 242 233
279 291 319 343 358 350 354 337 306 279 274 277 274 271 267 262 258 262 256 254 254 241 250 253 249 246 244 252 266 262 257 246 243 222 224 233 236 242 250 252 254 246 242 242
306 314 302 327 348 356 351 353 349 331 316 296 276 270 270 268 265 257 252 254 258 254 249 253 250 244 251 234 252 256 258 259 240 235 235 230 236 239 239 245 251 250 247 243
Height
3131 3133 3135 3140 3143 3146 3149 3152 3151 3152 3157 3160 3161 3160 3161 3163 3167 3168 3172 3171 3175 3180 3185 3189 3195 3194 3200 3203 3205 3208 3211 3212 3215 3215 3218 3220 3223 3225 3225 3226 3227 3228 3229 3230
3130 3129 3135 3139 3142 3145 3147 3150 3151 3148 3154 3158 3155 3155 3155 3159 3161 3165 3168 3169 3169 3176 3179 3184 3189 3190 3195 3200 3203 3206 3209 3211 3214 3216 3219 3221 3224 3226 3226 3227 3228 3229 3230 3231
3127 3131 3134 3137 3139 3142 3144 3147 3149 3149 3151 3154 3152 3153 3156 3157 3160 3164 3166 3169 3168 3170 3172 3177 3182 3186 3192 3196 3200 3204 3208 3211 3213 3215 3216 3219 3221 3223 3224 3225 3227 3229 3230 3231
3127 3129 3131 3134 3136 3140 3141 3143 3146 3147 3150 3150 3152 3155 3155 3154 3154 3157 3161 3161 3164 3166 3171 3174 3178 3183 3187 3192 3197 3202 3206 3209 3212 3213 3214 3216 3220 3223 3225 3226 3227 3228 3230 3231
3125 3126 3129 3132 3134 3137 3138 3140 3143 3144 3146 3145 3148 3150 3148 3150 3152 3152 3155 3158 3159 3163 3168 3169 3173 3179 3184 3189 3193 3199 3203 3206 3210 3211 3213 3215 3218 3222 3225 3225 3227 3228 3230 3231
3123 3125 3127 3128 3130 3133 3134 3137 3139 3140 3143 3143 3143 3148 3147 3147 3145 3150 3152 3153 3154 3159 3163 3168 3170 3175 3180 3185 3190 3195 3199 3203 3206 3209 3211 3214 3217 3220 3223 3224 3226 3228 3229 3231
3120 3121 3123 3124 3126 3129 3131 3133 3137 3140 3140 3141 3141 3144 3145 3146 3148 3149 3151 3150 3151 3155 3158 3161 3165 3169 3174 3180 3185 3191 3196 3198 3202 3206 3209 3212 3215 3218 3221 3223 3225 3227 3229 3231
3117 3120 3120 3120 3123 3124 3125 3129 3132 3140 3141 3138 3140 3140 3141 3146 3147 3146 3148 3151 3155 3155 3155 3159 3163 3167 3169 3175 3181 3187 3191 3196 3199 3202 3206 3210 3213 3216 3219 3222 3224 3226 3228 3231
3116 3116 3117 3119 3123 3123 3124 3126 3131 3132 3134 3138 3139 3139 3138 3142 3139 3142 3143 3146 3150 3153 3155 3158 3162 3165 3167 3170 3176 3182 3187 3191 3195 3199 3203 3206 3210 3213 3216 3219 3222 3224 3227 3229
3115 3116 3115 3117 3121 3122 3122 3127 3129 3129 3133 3138 3137 3138 3137 3138 3139 3139 3141 3142 3144 3148 3150 3153 3156 3161 3162 3167 3174 3178 3182 3186 3192 3196 3199 3203 3207 3210 3213 3216 3220 3223 3225 3226
3114 3117 3116 3118 3121 3122 3123 3124 3127 3127 3128 3131 3137 3136 3140 3138 3138 3136 3134 3131 3130 3136 3141 3145 3150 3154 3157 3163 3169 3172 3176 3181 3185 3190 3194 3198 3202 3205 3209 3212 3216 3219 3223 3224
3113 3115 3115 3115 3119 3122 3125 3127 3127 3129 3128 3127 3130 3136 3135 3136 3132 3129 3124 3121 3118 3123 3132 3138 3142 3148 3151 3157 3165 3168 3170 3175 3180 3185 3189 3193 3198 3202 3204 3208 3212 3216 3219 3222
3113 3115 3115 3112 3118 3119 3121 3124 3127 3128 3128 3126 3129 3132 3134 3130 3129 3125 3116 3115 3111 3114 3123 3134 3138 3142 3149 3153 3157 3162 3165 3170 3175 3181 3184 3187 3191 3196 3199 3203 3207 3210 3214 3216
3111 3115 3119 3120 3122 3121 3117 3120 3124 3126 3128 3127 3127 3127 3129 3126 3124 3124 3117 3112 3106 3109 3116 3127 3133 3140 3146 3147 3149 3152 3161 3166 3170 3173 3180 3183 3185 3190 3195 3199 3202 3205 3209 3212
3110 3113 3115 3117 3118 3117 3116 3115 3119 3123 3126 3128 3123 3124 3126 3124 3122 3120 3121 3113 3111 3108 3113 3123 3130 3137 3137 3139 3141 3146 3154 3160 3165 3168 3173 3178 3182 3185 3189 3194 3197 3200 3203 3206
3109 3110 3110 3113 3114 3115 3111 3112 3113 3116 3120 3121 3123 3122 3122 3122 3120 3119 3119 3118 3113 3110 3113 3122 3125 3126 3128 3135 3136 3143 3151 3155 3159 3163 3167 3174 3177 3180 3183 3187 3191 3195 3197 3200
3108 3109 3109 3108 3110 3110 3109 3106 3108 3109 3114 3115 3116 3115 3114 3116 3116 3116 3116 3116 3119 3116 3114 3117 3120 3116 3117 3129 3126 3133 3143 3147 3151 3156 3162 3167 3171 3173 3177 3181 3184 3187 3191 3194
3105 3107 3108 3107 3107 3109 3103 3104 3106 3106 3103 3105 3109 3107 3105 3109 3112 3111 3112 3113 3116 3120 3116 3116 3118 3114 3113 3119 3122 3125 3134 3140 3144 3149 3156 3161 3164 3166 3170 3174 3178 3181 3184 3187
3103 3103 3105 3104 3104 3100 3099 3100 3102 3100 3101 3099 3099 3098 3098 3100 3105 3107 3107 3107 3109 3115 3112 3112 3112 3114 3116 3120 3122 3123 3125 3132 3138 3146 3150 3155 3157 3157 3164 3167 3172 3175 3177 3179
3100 3100 3102 3101 3102 3098 3095 3096 3094 3092 3094 3095 3092 3090 3092 3093 3096 3099 3102 3102 3103 3108 3112 3111 3109 3111 3111 3113 3116 3121 3125 3129 3134 3138 3144 3147 3150 3151 3156 3162 3165 3168 3170 3173
3097 3097 3096 3096 3096 3091 3088 3089 3091 3090 3094 3088 3085 3085 3085 3087 3089 3090 3093 3098 3100 3104 3103 3104 3105 3108 3112 3111 3112 3115 3116 3122 3127 3129 3135 3139 3143 3145 3148 3153 3157 3161 3163 3166
3094 3095 3095 3094 3092 3087 3084 3083 3085 3081 3079 3078 3079 3077 3077 3080 3082 3083 3084 3085 3088 3091 3091 3095 3099 3109 3108 3109 3109 3112 3115 3114 3118 3115 3126 3130 3134 3137 3140 3144 3148 3151 3155 3157
3096 3096 3094 3093 3090 3084 3079 3075 3075 3071 3070 3072 3070 3068 3067 3071 3072 3077 3078 3078 3079 3083 3088 3090 3095 3101 3094 3102 3106 3109 3112 3111 3110 3112 3117 3121 3125 3131 3133 3135 3138 3143 3146 3149
3093 3092 3090 3088 3084 3079 3071 3066 3065 3063 3061 3060 3059 3058 3058 3061 3060 3064 3069 3072 3073 3073 3075 3082 3084 3084 3090 3094 3100 3101 3104 3107 3109 3111 3115 3116 3117 3120 3123 3127 3129 3132 3136 3140
3090 3088 3086 3083 3077 3073 3067 3061 3057 3055 3052 3048 3046 3046 3046 3048 3051 3049 3056 3060 3062 3068 3068 3070 3075 3078 3087 3077 3088 3096 3099 3100 3102 3104 3107 3107 3108 3112 3116 3118 3122 3124 3128 3131
3083 3081 3080 3077 3074 3069 3064 3058 3051 3047 3042 3038 3035 3034 3033 3032 3036 3037 3042 3046 3047 3054 3060 3063 3066 3073 3074 3076 3085 3085 3087 3090 3093 3095 3099 3101 3101 3103 3108 3110 3114 3116 3120 3122